KE5AKC Weather Reports


Display with metric or nautical units.
time (UTC)temp
F
wind
direction
speed
MPH
gust
MPH
rain 1hr
in
rain 24hr
in
rain mn
in
humidity
%
barometer
mb
20260505041307 73 166 3.0 3.0 0.00 0.00 0.00 75 1010.7
20260505040804 73 210 1.0 2.0 0.00 0.00 0.00 75 1011.0
20260505040301 73 126 4.0 6.0 0.00 0.00 0.00 74 1010.7
20260505035758 73 156 3.0 3.0 0.00 0.00 0.00 74 1011.0
20260505035254 73 147 5.0 7.0 0.00 0.00 0.00 74 1011.0
20260505034751 73 153 4.0 5.0 0.00 0.00 0.00 74 1010.7
20260505034248 73 282 4.0 5.0 0.00 0.00 0.00 74 1011.0
20260505033744 73 151 3.0 5.0 0.00 0.00 0.00 73 1011.3
20260505033242 73 58 1.0 1.0 0.00 0.00 0.00 73 1011.3
20260505032740 73 264 1.0 2.0 0.00 0.00 0.00 73 1011.3
20260505032236 73 161 5.0 8.0 0.00 0.00 0.00 73 1011.3
20260505031733 74 205 5.0 7.0 0.00 0.00 0.00 72 1011.3
20260505031229 74 262 3.0 5.0 0.00 0.00 0.00 72 1011.0
20260505030726 74 132 1.0 1.0 0.00 0.00 0.00 72 1011.0
20260505030223 74 236 3.0 5.0 0.00 0.00 0.00 72 1011.0
20260505025718 73 238 3.0 5.0 0.00 0.00 0.00 72 1011.0
20260505025217 73 197 2.0 3.0 0.00 0.00 0.00 72 1011.0
20260505024715 74 122 3.0 7.0 0.00 0.00 0.00 72 1011.0
20260505024211 74 268 0.0 1.0 0.00 0.00 0.00 72 1011.3
20260505023709 74 114 1.0 2.0 0.00 0.00 0.00 72 1011.0
20260505023206 74 173 7.0 9.0 0.00 0.00 0.00 71 1011.0
20260505022704 74 127 4.0 6.0 0.00 0.00 0.00 71 1011.0
20260505022200 74 293 2.0 3.0 0.00 0.00 0.00 71 1011.0
20260505021657 74 242 3.0 3.0 0.00 0.00 0.00 71 1010.7
20260505021154 74 197 1.0 2.0 0.00 0.00 0.00 71 1010.7
20260505020649 74 136 3.0 3.0 0.00 0.00 0.00 70 1011.0
20260505020145 74 184 2.0 2.0 0.00 0.00 0.00 70 1010.7
20260505015643 74 261 5.0 7.0 0.00 0.00 0.00 70 1010.7
20260505015139 74 193 3.0 5.0 0.00 0.00 0.00 70 1010.7
20260505014636 74 176 5.0 7.0 0.00 0.00 0.00 70 1010.3
20260505014133 74 148 9.0 11.0 0.00 0.00 0.00 71 1010.3
20260505013631 74 191 0.0 1.0 0.00 0.00 0.00 71 1010.7
20260505013128 74 210 3.0 5.0 0.00 0.00 0.00 70 1010.3
20260505012626 74 177 3.0 3.0 0.00 0.00 0.00 70 1010.7
20260505012122 74 163 3.0 5.0 0.00 0.00 0.00 70 1010.7
20260505011618 74 253 1.0 3.0 0.00 0.00 0.00 69 1010.7
20260505011116 75 212 2.0 2.0 0.00 0.00 0.00 69 1010.7
20260505010610 75 243 1.0 1.0 0.00 0.00 0.00 68 1010.7
20260505005558 75 176 5.0 6.0 0.00 0.00 0.00 67 1010.7
20260505005055 76 162 1.0 1.0 0.00 0.00 0.00 66 1010.3
20260505004552 76 96 2.0 5.0 0.00 0.00 0.00 66 1010.3
20260505004049 76 211 2.0 5.0 0.00 0.00 0.00 66 1010.3
20260505003547 76 147 3.0 3.0 0.00 0.00 0.00 65 1010.3
20260505003044 76 171 4.0 5.0 0.00 0.00 0.00 65 1010.3
20260505002543 76 247 3.0 3.0 0.00 0.00 0.00 65 1010.3
20260505002038 76 138 4.0 6.0 0.00 0.00 0.00 65 1010.3
20260505001534 76 14 1.0 1.0 0.00 0.00 0.00 65 1010.3
20260505001031 77 151 5.0 6.0 0.00 0.00 0.00 64 1010.7
20260505000529 77 162 3.0 5.0 0.00 0.00 0.00 64 1010.7
20260505000026 77 143 5.0 7.0 0.00 0.00 0.00 64 1010.7
20260504235523 77 173 4.0 6.0 0.00 0.00 0.00 64 1010.3
20260504235020 77 174 2.0 5.0 0.00 0.00 0.00 63 1010.3
20260504234517 77 184 5.0 7.0 0.00 0.00 0.00 63 1010.7
20260504234014 77 167 3.0 3.0 0.00 0.00 0.00 63 1010.7
20260504233509 78 195 6.0 7.0 0.00 0.00 0.00 62 1010.7
20260504233006 78 149 4.0 7.0 0.00 0.00 0.00 61 1010.7
20260504232503 78 288 2.0 2.0 0.00 0.00 0.00 61 1010.7
20260504232001 78 170 7.0 8.0 0.00 0.00 0.00 60 1010.7
20260504231456 78 208 1.0 2.0 0.00 0.00 0.00 61 1010.7
20260504230953 78 153 5.0 6.0 0.00 0.00 0.00 60 1010.7
20260504230450 78 86 6.0 8.0 0.00 0.00 0.00 60 1010.7
20260504225949 79 230 7.0 8.0 0.00 0.00 0.00 60 1010.7
20260504225445 80 254 4.0 5.0 0.00 0.00 0.00 59 1010.7
20260504224942 79 114 4.0 7.0 0.00 0.00 0.00 60 1011.0
20260504224438 79 159 4.0 8.0 0.00 0.00 0.00 58 1011.0
20260504223936 79 120 3.0 3.0 0.00 0.00 0.00 61 1011.3
20260504223432 79 217 3.0 7.0 0.00 0.00 0.00 61 1011.3
20260504222927 78 132 2.0 2.0 0.00 0.00 0.00 61 1011.3
20260504222425 78 160 4.0 5.0 0.00 0.00 0.00 61 1011.3
20260504221923 79 170 10.0 13.0 0.00 0.00 0.00 60 1011.7
20260504221420 79 153 6.0 8.0 0.00 0.00 0.00 59 1011.0
20260504220917 79 102 3.0 3.0 0.00 0.00 0.00 59 1011.3
20260504220413 79 102 2.0 3.0 0.00 0.00 0.00 59 1011.3
20260504215910 80 163 5.0 8.0 0.00 0.00 0.00 58 1011.3
20260504215407 80 147 6.0 7.0 0.00 0.00 0.00 57 1011.7
20260504214903 80 268 3.0 3.0 0.00 0.00 0.00 57 1011.3
20260504214400 80 214 2.0 3.0 0.00 0.00 0.00 57 1011.3
20260504213857 80 191 4.0 6.0 0.00 0.00 0.00 57 1011.7
20260504213352 80 81 7.0 8.0 0.00 0.00 0.00 57 1011.3
20260504212850 80 190 4.0 5.0 0.00 0.00 0.00 57 1011.7
20260504212346 80 150 3.0 3.0 0.00 0.00 0.00 56 1011.7
20260504211844 81 154 5.0 8.0 0.00 0.00 0.00 55 1012.0
20260504211340 80 226 3.0 5.0 0.00 0.00 0.00 55 1011.7
20260504210838 81 139 5.0 9.0 0.00 0.00 0.00 54 1011.7
20260504210334 82 172 4.0 7.0 0.00 0.00 0.00 54 1012.0
20260504205832 81 129 6.0 8.0 0.00 0.00 0.00 53 1012.4
20260504205329 81 178 6.0 7.0 0.00 0.00 0.00 53 1012.0
20260504204827 81 111 7.0 10.0 0.00 0.00 0.00 54 1012.4
20260504204326 82 72 4.0 6.0 0.00 0.00 0.00 53 1012.0
20260504203824 83 172 4.0 7.0 0.00 0.00 0.00 51 1012.4
20260504203321 83 196 6.0 9.0 0.00 0.00 0.00 50 1012.4
20260504202817 83 172 5.0 9.0 0.00 0.00 0.00 49 1012.4
20260504202314 84 154 3.0 6.0 0.00 0.00 0.00 48 1012.4
20260504201811 83 139 3.0 3.0 0.00 0.00 0.00 50 1012.4
20260504201308 83 214 3.0 5.0 0.00 0.00 0.00 48 1012.7
20260504200805 83 334 1.0 2.0 0.00 0.00 0.00 49 1012.7
20260504200302 82 281 1.0 2.0 0.00 0.00 0.00 50 1012.7
20260504195758 82 176 5.0 6.0 0.00 0.00 0.00 48 1013.0
20260504195254 82 177 4.0 6.0 0.00 0.00 0.00 50 1013.0
20260504194751 82 185 3.0 3.0 0.00 0.00 0.00 50 1012.7
20260504194247 83 212 5.0 7.0 0.00 0.00 0.00 48 1013.0
20260504193743 82 321 2.0 2.0 0.00 0.00 0.00 49 1013.0
20260504193241 83 261 3.0 5.0 0.00 0.00 0.00 47 1013.4
20260504192739 83 220 5.0 8.0 0.00 0.00 0.00 45 1013.0
20260504192237 83 246 4.0 5.0 0.00 0.00 0.00 47 1013.4
20260504191736 84 166 2.0 2.0 0.00 0.00 0.00 45 1013.7
20260504191232 83 274 1.0 1.0 0.00 0.00 0.00 45 1013.7
20260504190727 83 172 2.0 3.0 0.00 0.00 0.00 45 1013.4
20260504190224 83 188 6.0 7.0 0.00 0.00 0.00 46 1013.7
20260504185721 83 267 5.0 7.0 0.00 0.00 0.00 45 1013.7
20260504185218 82 274 2.0 2.0 0.00 0.00 0.00 49 1013.7
20260504184713 81 174 4.0 7.0 0.00 0.00 0.00 48 1013.7
20260504184210 81 254 5.0 8.0 0.00 0.00 0.00 50 1014.1
20260504183706 81 132 7.0 9.0 0.00 0.00 0.00 50 1013.7
20260504183203 82 179 3.0 3.0 0.00 0.00 0.00 48 1013.7
20260504182701 81 169 7.0 8.0 0.00 0.00 0.00 48 1013.7
20260504182158 82 124 5.0 6.0 0.00 0.00 0.00 47 1014.1
20260504181655 82 211 3.0 3.0 0.00 0.00 0.00 46 1014.4
20260504181153 82 111 2.0 2.0 0.00 0.00 0.00 47 1014.4
20260504180652 81 200 4.0 6.0 0.00 0.00 0.00 47 1014.1
20260504180150 81 235 4.0 6.0 0.00 0.00 0.00 47 1014.4
20260504175647 81 95 4.0 6.0 0.00 0.00 0.00 48 1014.4
20260504175143 81 304 1.0 2.0 0.00 0.00 0.00 48 1014.1
20260504174642 82 229 3.0 6.0 0.00 0.00 0.00 46 1014.4
20260504174138 81 225 0.0 1.0 0.00 0.00 0.00 47 1014.4
20260504173635 81 187 3.0 5.0 0.00 0.00 0.00 47 1015.1
20260504173133 80 60 3.0 3.0 0.00 0.00 0.00 48 1014.4
20260504172629 80 200 4.0 7.0 0.00 0.00 0.00 47 1014.7
20260504172125 81 213 3.0 5.0 0.00 0.00 0.00 47 1015.1
20260504171622 80 246 2.0 5.0 0.00 0.00 0.00 49 1015.1
20260504171119 81 186 2.0 3.0 0.00 0.00 0.00 47 1015.1
20260504170615 80 138 3.0 3.0 0.00 0.00 0.00 50 1015.4
20260504170113 79 123 5.0 5.0 0.00 0.00 0.00 50 1015.1
20260504150952 76 269 4.0 6.0 0.00 0.00 0.00 55 1016.1
20260504150450 75 234 1.0 2.0 0.00 0.00 0.00 57 1015.7
20260504140910 73 45 2.0 2.0 0.00 0.00 0.00 56 1016.1
20260504140406 72 165 4.0 7.0 0.00 0.00 0.00 56 1016.1
20260504130325 68 156 1.0 1.0 0.00 0.00 0.00 72 1016.1
20260504120249 57 347 0.0 0.0 0.00 0.00 0.00 89 1015.7
20260504110716 57 310 0.0 0.0 0.00 0.00 0.00 87 1015.4
20260504110212 57 309 0.0 0.0 0.00 0.00 0.00 87 1015.4
20260504100131 58 359 0.0 0.0 0.00 0.00 0.00 85 1015.7
20260504081524 60 320 0.0 0.0 0.00 0.00 0.00 76 1016.4
20260504081019 60 320 0.0 0.0 0.00 0.00 0.00 76 1016.4
20260504080516 60 320 0.0 0.0 0.00 0.00 0.00 76 1016.4
20260504050328 63 214 0.0 1.0 0.00 0.00 0.00 67 1018.1
20260504045825 63 279 0.0 0.0 0.00 0.00 0.00 67 1018.1
20260504045320 63 274 0.0 0.0 0.00 0.00 0.00 67 1018.5